STARLINK-1906 (46765 NORAD) Tracking and Keplerian Element Data

This shows tracking and keplerian element data for the satellite.

Feedback or suggestion? Click here.




ElementValue
Catalog46765
NameSTARLINK-1906
Epoch Orbit180
Epoch Day327.91667824
Epoch Year2020
RAAN16.8239
Inclination53.0566
Eccentricity0.0001266
Argument of Perigee79.7546
Mean Anonmoly106.3252
Mean Motion15.53564839
Decay Rate-0.01087684
L11 46765U 20074AC 20327.91667824 -.01087684 00000-0 -18526-1 0 9997
L22 46765 53.0566 16.8239 0001266 79.7546 106.3252 15.53564839 1804

Live tracking and technical data element details for STARLINK-1906 (NORAD 46765). STARLINK-1906 can be tracked NOW for your location showing map with azimuth and elevation plus other details from your city location.

Track the satellite on the map from your city or location and see movement details for azimuth, elevation, latitude, longitude, range, height, and movement on the map or in text.







IsCatalogInMostPopularTable: catalog: 46765, numindb: 7
Update: records affected: 1



GetName: 46765 STARLINK-1906

Hit Count: updated at: Tue, 24 Nov 2020 12:43:19 GMT